"Pseudo-MPEC" for P222UpX

Created 2024 Dec 27 18:31:17 UT using Find_Orb

Click here for an explanation of pseudo-MPECs

 
 Astrometry: 
     P222UpX* C2024 12 02.28068600 01 32.828+16 34 54.31   ~C2HH 22.32wXNEOCPF52
     P222UpX  C2024 12 02.29241900 01 32.862+16 34 51.06   ~C2HH 22.06wXNEOCPF52
     P222UpX  C2024 12 02.31586300 01 33.014+16 34 45.31   ~C2HH 22.57wXNEOCPF52
     P222UpX KC2024 12 03.09338500 01 38.014+16 31 28.81   ~C33H 22.33GVNEOCPV06
     P222UpX KC2024 12 03.10152800 01 38.060+16 31 26.69   ~C33H 21.91GVNEOCPV06
     P222UpX KC2024 12 03.10967000 01 38.111+16 31 24.71   ~C33H 22.17GVNEOCPV06
     P222UpX KC2024 12 03.11781400 01 38.154+16 31 22.69   ~C33H 22.70GVNEOCPV06
     P222UpX 3C2024 12 03.19429100 01 38.688+16 31 04.01   ~C3Gl 23.31GVNEOCPT14
     P222UpX 3C2024 12 03.19549800 01 38.691+16 31 03.66   ~C3Gl 22.90GVNEOCPT14
     P222UpX 3C2024 12 03.19671500 01 38.695+16 31 03.27   ~C3Gl 22.90GVNEOCPT14

Station data:
(F52) Pan-STARRS 2, Haleakala  (N20.707382 W156.255910)  US/Hawaii.
   Observers J. Bulger, T. Dukes, T. Lowe, A. Schultz, M. Willman. Measurers
   K. Chambers, S. Chastel, T. de Boer, L. Denneau, J. Fairlamb, H.
   Flewelling, M. Huber, C.-C. Lin, E. Magnier, Y. Ramanjooloo, R. Wainscoat,
   R. Weryk. 1.8-m Ritchey-Chrétien + CCD.
(T14) Mauna Kea-UH/Tholen NEO Follow-Up (CFHT)  (N19.825252 W155.468876)
   US/Hawaii.  Observer R. Weryk. 3.6-m Canada-France-Hawaii Telescope.
(V06) Catalina Sky Survey-Kuiper  (N32.416871 W110.732550)  US/Arizona.
   Observers T. A. Pruyne, B. M. Africano, E. J. Christensen, G. A. Farneth,
   D. C. Fuls, A. R. Gibbs, A. D. Grauer, H. Gröller, J. A. Johnson, R. A.
   Kowalski, S. M. Larson, G. J. Leonard, D. Rankin, R. L. Seaman, F. C.
   Shelly, K. W. Wierzchoś. 1.55-m reflector + CCD.

Orbital elements:  P222UpX
   Perihelion 2026 May 1.22979 +/- 601 TT =  5:30:53 (JD 2461161.72979)
Epoch 2024 Dec  3.0 TT = JDT 2460647.5   Ju: 0.7850   Ur: 0.9657
M 349.52933799 +/- 70               (J2000 ecliptic)             AutoNEOCP
n   0.02036183 +/- 0.0533           Peri.  212.73974 +/- 90
a  13.2818358 +/- 23.2              Node   232.64547 +/- 29
e   0.7128401 +/- 0.207             Incl.   22.46539 +/- 8
P  48.40466                H 15.03  G  0.15   U 10.8  SR
q 3.81400955 +/- 1.87    Q 22.7496621 +/- 18.3
From 10 observations 2024 Dec. 2-3 (22.0 hr); mean residual 0".15
Residuals in arcseconds: 
241202 F52  .14+  .09+    241203 V06  .25+  .09-    241203 T14  .02-  .01+    
241202 F52  .27-  .16-    241203 V06  .28+  .03-    241203 T14  .06-  .07-    
241202 F52  .12+  .07+    241203 V06  .20+  .01-    
241203 V06  .28+  .01-    241203 T14  .04+  .06+    

Ephemerides (geocentric):
Date (UTC) HH   RA             Dec           delta  r     elong  mag " sig PA
---- --------  ------------   ------------  ------ ------ -----  --- --------
2024 12 27 19  00 08 06.289   +15 13 26.59  5.0418 5.1668  91.8 22.8 1327 114
2024 12 27 20  00 08 07.308   +15 13 21.38  5.0422 5.1666  91.7 22.8 1331 114
2024 12 27 21  00 08 08.329   +15 13 16.18  5.0427 5.1664  91.7 22.8 1336 114
2024 12 27 22  00 08 09.351   +15 13 10.99  5.0432 5.1662  91.7 22.8 1340 114
2024 12 27 23  00 08 10.374   +15 13 05.80  5.0436 5.1660  91.6 22.8 1344 114
2024 12 28 00  00 08 11.399   +15 13 00.63  5.0441 5.1658  91.6 22.8 1348 114
2024 12 28 01  00 08 12.424   +15 12 55.47  5.0445 5.1656  91.6 22.8 1352 114
2024 12 28 02  00 08 13.451   +15 12 50.31  5.0450 5.1655  91.5 22.8 1357 114
2024 12 28 03  00 08 14.478   +15 12 45.17  5.0455 5.1653  91.5 22.8 1361 114
2024 12 28 04  00 08 15.507   +15 12 40.03  5.0459 5.1651  91.4 22.8 1365 114
2024 12 28 05  00 08 16.538   +15 12 34.91  5.0464 5.1649  91.4 22.8 1369 114
2024 12 28 06  00 08 17.569   +15 12 29.79  5.0469 5.1647  91.4 22.8 1374 114
2024 12 28 07  00 08 18.601   +15 12 24.68  5.0473 5.1645  91.3 22.8 1378 114
2024 12 28 08  00 08 19.635   +15 12 19.58  5.0478 5.1643  91.3 22.8 1382 114
2024 12 28 09  00 08 20.670   +15 12 14.50  5.0482 5.1642  91.3 22.8 1386 114
2024 12 28 10  00 08 21.706   +15 12 09.42  5.0487 5.1640  91.2 22.8 1391 114
2024 12 28 11  00 08 22.743   +15 12 04.35  5.0492 5.1638  91.2 22.8 1395 114
2024 12 28 12  00 08 23.781   +15 11 59.29  5.0496 5.1636  91.1 22.8 1399 114
2024 12 28 13  00 08 24.821   +15 11 54.23  5.0501 5.1634  91.1 22.8 1403 114
2024 12 28 14  00 08 25.861   +15 11 49.19  5.0506 5.1632  91.1 22.8 1408 114
2024 12 28 15  00 08 26.903   +15 11 44.16  5.0510 5.1631  91.0 22.8 1412 114
2024 12 28 16  00 08 27.946   +15 11 39.14  5.0515 5.1629  91.0 22.8 1416 114
2024 12 28 17  00 08 28.990   +15 11 34.12  5.0519 5.1627  90.9 22.8 1421 114
2024 12 28 18  00 08 30.035   +15 11 29.12  5.0524 5.1625  90.9 22.8 1425 114
2024 12 28 19  00 08 31.082   +15 11 24.12  5.0529 5.1623  90.9 22.8 1429 114
2024 12 28 20  00 08 32.129   +15 11 19.14  5.0533 5.1621  90.8 22.8 1434 114
2024 12 28 21  00 08 33.178   +15 11 14.16  5.0538 5.1619  90.8 22.8 1438 114
2024 12 28 22  00 08 34.228   +15 11 09.19  5.0543 5.1618  90.8 22.8 1442 114
2024 12 28 23  00 08 35.279   +15 11 04.24  5.0547 5.1616  90.7 22.8 1447 114
2024 12 29 00  00 08 36.331   +15 10 59.29  5.0552 5.1614  90.7 22.8 1451 114
2024 12 29 01  00 08 37.385   +15 10 54.35  5.0556 5.1612  90.6 22.8 1455 114
2024 12 29 02  00 08 38.439   +15 10 49.42  5.0561 5.1610  90.6 22.8 1460 114
2024 12 29 03  00 08 39.495   +15 10 44.50  5.0566 5.1608  90.6 22.8 1464 114
2024 12 29 04  00 08 40.552   +15 10 39.59  5.0570 5.1606  90.5 22.8 1468 114
2024 12 29 05  00 08 41.610   +15 10 34.69  5.0575 5.1605  90.5 22.8 1473 114
2024 12 29 06  00 08 42.669   +15 10 29.80  5.0580 5.1603  90.5 22.8 1477 114
2024 12 29 07  00 08 43.729   +15 10 24.91  5.0584 5.1601  90.4 22.8 1482 114
2024 12 29 08  00 08 44.791   +15 10 20.04  5.0589 5.1599  90.4 22.8 1486 114
2024 12 29 09  00 08 45.853   +15 10 15.18  5.0594 5.1597  90.3 22.8 1490 114
2024 12 29 10  00 08 46.917   +15 10 10.32  5.0598 5.1595  90.3 22.8 1495 114
2024 12 29 11  00 08 47.982   +15 10 05.48  5.0603 5.1593  90.3 22.8 1499 114
2024 12 29 12  00 08 49.048   +15 10 00.64  5.0607 5.1592  90.2 22.8 1504 114
2024 12 29 13  00 08 50.115   +15 09 55.81  5.0612 5.1590  90.2 22.8 1508 114
2024 12 29 14  00 08 51.184   +15 09 51.00  5.0617 5.1588  90.1 22.8 1512 114
2024 12 29 15  00 08 52.253   +15 09 46.19  5.0621 5.1586  90.1 22.8 1517 114
2024 12 29 16  00 08 53.324   +15 09 41.39  5.0626 5.1584  90.1 22.8 1521 114
2024 12 29 17  00 08 54.396   +15 09 36.60  5.0631 5.1582  90.0 22.8 1526 114
2024 12 29 18  00 08 55.469   +15 09 31.82  5.0635 5.1580  90.0 22.8 1530 114